TRA87X EHAM-LGIR

Flight info

Callsign TRA87X
Flight time N/A
Altitude 35000
Route EDUPO Z739 MISGO DCT DOJOH DCT DODEN DCT NEGIX DCT DINKU M867 XERUM DCT BAVAX DCT RADIZ DCT NIPEL DCT ABISO DCT NEMEK DCT RETRA DCT PINDO UL607 GIVIS T514 XAVIS
Aircraft B738/M-SDE2E3FGHIJ1P2RWXY/LB1

Departure

Time 2026-05-06 16:02
Airport Amsterdam Airport Schiphol (EHAM)

Arrival

Time N/A
Airport Heraklion International Nikos Kazantzakis Airport (LGIR)
Time Latitude Longitude Altitude Speed Heading
2026-05-06 15:14 52.30506 4.76551 -2 ft 0 kts 58°
2026-05-06 15:50 52.30506 4.76549 -2 ft 2 kts 58°
2026-05-06 15:50 52.30493 4.76513 -2 ft 4 kts 65°
2026-05-06 15:50 52.30486 4.76475 -2 ft 4 kts 110°
2026-05-06 15:51 52.30490 4.76461 -2 ft 1 kts 136°
2026-05-06 15:53 52.30489 4.76463 -2 ft 1 kts 137°
2026-05-06 15:54 52.30459 4.76488 -2 ft 9 kts 151°
2026-05-06 15:54 52.30380 4.76565 -2 ft 14 kts 148°
2026-05-06 15:54 52.30311 4.76562 -2 ft 10 kts 232°
2026-05-06 15:54 52.30269 4.76457 -2 ft 14 kts 237°
2026-05-06 15:55 52.30196 4.76264 -2 ft 26 kts 238°
2026-05-06 15:55 52.30095 4.75997 -2 ft 28 kts 237°
2026-05-06 15:55 52.29991 4.75734 -2 ft 27 kts 237°
2026-05-06 15:55 52.29896 4.75483 -2 ft 25 kts 239°
2026-05-06 15:56 52.29832 4.75258 -2 ft 19 kts 274°
2026-05-06 15:56 52.29899 4.75086 -2 ft 18 kts 310°
2026-05-06 15:56 52.29984 4.74929 -2 ft 20 kts 312°
2026-05-06 15:56 52.30083 4.74747 1 ft 23 kts 312°
2026-05-06 15:57 52.30184 4.74562 9 ft 22 kts 311°
2026-05-06 15:57 52.30252 4.74436 9 ft 0 kts 311°
2026-05-06 15:59 52.30255 4.74430 9 ft 3 kts 311°
2026-05-06 15:59 52.30289 4.74368 7 ft 13 kts 311°
2026-05-06 15:59 52.30371 4.74192 -2 ft 20 kts 284°
2026-05-06 15:59 52.30304 4.74015 -2 ft 18 kts 216°
2026-05-06 16:00 52.30204 4.73891 -2 ft 18 kts 226°
2026-05-06 16:00 52.30210 4.73740 -3 ft 12 kts 346°
2026-05-06 16:00 52.30239 4.73741 -4 ft 0 kts
2026-05-06 16:01 52.30240 4.73741 -4 ft 0 kts
2026-05-06 16:01 52.30350 4.73752 -5 ft 53 kts
2026-05-06 16:01 52.31021 4.73811 -1 ft 137 kts
2026-05-06 16:02 52.32149 4.73937 428 ft 173 kts 11°
2026-05-06 16:02 52.33273 4.74080 1972 ft 146 kts
2026-05-06 16:02 52.34286 4.74415 2829 ft 158 kts 27°
2026-05-06 16:02 52.35404 4.75231 3192 ft 190 kts 26°
2026-05-06 16:03 52.36707 4.76154 3451 ft 215 kts 26°
2026-05-06 16:03 52.38070 4.77290 3922 ft 226 kts 40°
2026-05-06 16:03 52.39193 4.79165 4420 ft 242 kts 47°
2026-05-06 16:03 52.40391 4.81218 5024 ft 255 kts 46°
2026-05-06 16:04 52.41598 4.83326 6056 ft 256 kts 52°
2026-05-06 16:04 52.42311 4.86004 6884 ft 262 kts 78°
2026-05-06 16:04 52.42457 4.88999 7853 ft 265 kts 86°
2026-05-06 16:04 52.42456 4.92067 8620 ft 274 kts 89°
2026-05-06 16:05 52.42441 4.95261 9378 ft 283 kts 91°
2026-05-06 16:05 52.42002 4.98422 10127 ft 292 kts 117°
2026-05-06 16:05 52.40684 5.01038 10475 ft 316 kts 141°
2026-05-06 16:05 52.38786 5.03233 10690 ft 342 kts 146°
2026-05-06 16:06 52.36787 5.05459 11050 ft 359 kts 145°
2026-05-06 16:06 52.34696 5.07824 11596 ft 371 kts 145°
2026-05-06 16:06 52.32615 5.10469 12297 ft 377 kts 136°
2026-05-06 16:06 52.30891 5.13633 13205 ft 377 kts 130°
2026-05-06 16:07 52.29155 5.16984 13854 ft 384 kts 131°
2026-05-06 16:07 52.27416 5.20237 14558 ft 388 kts 132°
2026-05-06 16:07 52.25612 5.23533 15337 ft 388 kts 133°
2026-05-06 16:07 52.23800 5.26881 16114 ft 390 kts 129°
2026-05-06 16:08 52.22177 5.30390 16775 ft 395 kts 126°
2026-05-06 16:08 52.20604 5.34096 17498 ft 397 kts 124°
2026-05-06 16:08 52.19029 5.37874 18082 ft 404 kts 125°
2026-05-06 16:08 52.17453 5.41615 18603 ft 409 kts 125°
2026-05-06 16:09 52.15822 5.45427 19188 ft 411 kts 126°
2026-05-06 16:09 52.14153 5.49283 19902 ft 410 kts 127°
2026-05-06 16:09 52.12495 5.53085 20457 ft 414 kts 127°
2026-05-06 16:09 52.10814 5.56924 20933 ft 419 kts 127°
2026-05-06 16:10 52.09116 5.60798 21452 ft 423 kts 127°
2026-05-06 16:10 52.07428 5.64643 22014 ft 425 kts 127°
2026-05-06 16:10 52.05684 5.68556 22544 ft 428 kts 129°
2026-05-06 16:10 52.04428 5.71056 22880 ft 430 kts 132°
2026-05-06 16:11 52.02812 5.74032 23264 ft 432 kts 133°
2026-05-06 16:11 52.00795 5.77677 23708 ft 436 kts 133°
2026-05-06 16:11 51.98785 5.81371 24158 ft 438 kts 133°
2026-05-06 16:11 51.96781 5.85105 24622 ft 440 kts 132°
2026-05-06 16:12 51.94766 5.88868 25047 ft 442 kts 133°
2026-05-06 16:12 51.92744 5.92637 25428 ft 445 kts 133°
2026-05-06 16:12 51.90700 5.96439 25834 ft 447 kts 133°
2026-05-06 16:12 51.88654 6.00239 26256 ft 448 kts 132°
2026-05-06 16:13 51.86605 6.04036 26682 ft 449 kts 132°
2026-05-06 16:13 51.84542 6.07849 26982 ft 452 kts 133°
2026-05-06 16:13 51.82459 6.11665 27286 ft 454 kts 132°
2026-05-06 16:13 51.80354 6.15509 27618 ft 456 kts 133°
2026-05-06 16:14 51.78481 6.18928 27910 ft 458 kts 132°
2026-05-06 16:14 51.76374 6.22773 28277 ft 459 kts 132°
2026-05-06 16:14 51.74245 6.26657 28600 ft 460 kts 133°
2026-05-06 16:14 51.72123 6.30532 28898 ft 462 kts 133°
2026-05-06 16:15 51.70005 6.34396 29608 ft 454 kts 133°
2026-05-06 16:15 51.67934 6.38171 30217 ft 448 kts 133°
2026-05-06 16:15 51.65889 6.41889 30533 ft 449 kts 133°
2026-05-06 16:15 51.63786 6.45704 30740 ft 452 kts 133°
2026-05-06 16:16 51.61694 6.49491 30992 ft 453 kts 133°
2026-05-06 16:16 51.59593 6.53291 31320 ft 453 kts 133°
2026-05-06 16:16 51.57505 6.57063 31682 ft 451 kts 133°
2026-05-06 16:16 51.55419 6.60828 32052 ft 450 kts 133°
2026-05-06 16:17 51.53330 6.64592 32375 ft 450 kts 133°
2026-05-06 16:17 51.51242 6.68350 32689 ft 450 kts 133°
2026-05-06 16:17 51.49155 6.72100 33031 ft 450 kts 134°
2026-05-06 16:17 51.47071 6.75841 33340 ft 450 kts 134°
2026-05-06 16:18 51.45687 6.78322 33521 ft 451 kts 134°
2026-05-06 16:18 51.43593 6.82071 33822 ft 451 kts 134°
2026-05-06 16:18 51.41189 6.86367 34150 ft 451 kts 134°
2026-05-06 16:18 51.39046 6.90027 34427 ft 450 kts 137°
2026-05-06 16:19 51.37552 6.92412 34637 ft 450 kts 138°
2026-05-06 16:19 51.35297 6.95895 34866 ft 452 kts 139°
2026-05-06 16:19 51.30711 7.02866 34851 ft 454 kts 139°
2026-05-06 16:20 51.26185 7.09790 34843 ft 448 kts 139°
2026-05-06 16:20 51.21700 7.16689 34834 ft 447 kts 139°
2026-05-06 16:21 51.17223 7.23572 34838 ft 447 kts 139°
2026-05-06 16:21 51.12762 7.30412 34848 ft 448 kts 139°
2026-05-06 16:22 51.08259 7.37294 34850 ft 449 kts 139°
2026-05-06 16:22 51.03743 7.44178 34839 ft 450 kts 139°
2026-05-06 16:23 50.99215 7.51059 34827 ft 451 kts 139°
2026-05-06 16:23 50.94676 7.57939 34810 ft 451 kts 139°
2026-05-06 16:24 50.90127 7.64815 34815 ft 451 kts 139°
2026-05-06 16:24 50.85591 7.71654 34816 ft 450 kts 139°
2026-05-06 16:25 50.81048 7.78461 34806 ft 450 kts 140°
2026-05-06 16:25 50.76495 7.85221 34804 ft 449 kts 140°
2026-05-06 16:26 50.71936 7.91975 34803 ft 449 kts 140°
2026-05-06 16:26 50.67379 7.98713 34795 ft 448 kts 140°
2026-05-06 16:27 50.62830 8.05427 34803 ft 447 kts 140°
2026-05-06 16:27 50.58462 8.12393 34788 ft 451 kts 133°
2026-05-06 16:28 50.54608 8.20102 34783 ft 451 kts 131°
2026-05-06 16:28 50.50748 8.27873 34789 ft 449 kts 132°
2026-05-06 16:29 50.46858 8.35536 34788 ft 448 kts 132°
2026-05-06 16:29 50.42955 8.43158 34788 ft 447 kts 132°
2026-05-06 16:30 50.39693 8.49514 34789 ft 446 kts 133°
2026-05-06 16:30 50.35034 8.58075 34791 ft 443 kts 136°
2026-05-06 16:31 50.30774 8.65133 34797 ft 443 kts 137°
2026-05-06 16:31 50.26518 8.72130 34788 ft 444 kts 137°
2026-05-06 16:32 50.22285 8.79139 34800 ft 444 kts 137°
2026-05-06 16:32 50.18177 8.85960 34792 ft 445 kts 137°
2026-05-06 16:33 50.13930 8.93002 34798 ft 445 kts 137°
2026-05-06 16:34 50.07543 9.03555 34797 ft 446 kts 137°
2026-05-06 16:34 50.03535 9.10154 34795 ft 446 kts 137°
2026-05-06 16:35 49.99266 9.17165 34604 ft 445 kts 139°
2026-05-06 16:35 49.95019 9.24122 34744 ft 442 kts 139°
2026-05-06 16:36 49.90783 9.31036 34779 ft 442 kts 139°
2026-05-06 16:36 49.86533 9.37956 34793 ft 443 kts 139°
2026-05-06 16:37 49.82267 9.44883 34791 ft 444 kts 139°
2026-05-06 16:37 49.78017 9.51765 34798 ft 445 kts 139°
2026-05-06 16:38 49.73733 9.58685 34781 ft 445 kts 139°
2026-05-06 16:38 49.69436 9.65608 34799 ft 446 kts 139°
2026-05-06 16:39 49.65134 9.72518 34782 ft 446 kts 139°
2026-05-06 16:39 49.60835 9.79405 34799 ft 446 kts 139°
2026-05-06 16:40 49.56523 9.86295 34794 ft 446 kts 139°
2026-05-06 16:40 49.52214 9.93161 34789 ft 445 kts 139°
2026-05-06 16:41 49.47932 9.99948 34791 ft 444 kts 140°
2026-05-06 16:41 49.43460 10.06439 34808 ft 441 kts 143°
2026-05-06 16:42 49.38923 10.12773 34791 ft 441 kts 143°
2026-05-06 16:42 49.34397 10.19117 34805 ft 440 kts 142°
2026-05-06 16:43 49.29888 10.25472 34814 ft 441 kts 142°
2026-05-06 16:43 49.25378 10.31835 34803 ft 440 kts 142°
2026-05-06 16:44 49.20862 10.38191 34814 ft 440 kts 142°
2026-05-06 16:44 49.16347 10.44528 34821 ft 440 kts 142°
2026-05-06 16:45 49.11831 10.50851 34817 ft 440 kts 142°
2026-05-06 16:45 49.07308 10.57165 34823 ft 440 kts 142°
2026-05-06 16:46 49.02770 10.63484 34783 ft 441 kts 142°
2026-05-06 16:46 48.98253 10.69759 34804 ft 441 kts 142°
2026-05-06 16:47 48.93704 10.76060 34813 ft 442 kts 142°
2026-05-06 16:47 48.89146 10.82358 34794 ft 443 kts 142°
2026-05-06 16:48 48.84607 10.88614 34777 ft 444 kts 142°
2026-05-06 16:48 48.80547 10.94197 34768 ft 444 kts 142°
2026-05-06 16:49 48.75974 11.00470 34737 ft 444 kts 142°
2026-05-06 16:49 48.71380 11.06756 34744 ft 445 kts 142°
2026-05-06 16:50 48.66784 11.13026 34747 ft 445 kts 142°
2026-05-06 16:50 48.62179 11.19295 34746 ft 445 kts 142°
2026-05-06 16:51 48.57568 11.25556 34764 ft 445 kts 142°
2026-05-06 16:51 48.52958 11.31799 34762 ft 445 kts 142°
2026-05-06 16:52 48.48352 11.38021 34787 ft 444 kts 142°
2026-05-06 16:52 48.43746 11.44228 34800 ft 444 kts 142°
2026-05-06 16:53 48.39174 11.50373 34785 ft 443 kts 142°
2026-05-06 16:53 48.34566 11.56551 34785 ft 443 kts 142°
2026-05-06 16:54 48.29960 11.62714 34777 ft 443 kts 142°
2026-05-06 16:54 48.25349 11.68874 34771 ft 443 kts 141°
2026-05-06 16:55 48.21276 11.74448 34785 ft 443 kts 141°
2026-05-06 16:55 48.16724 11.80728 34802 ft 444 kts 141°
2026-05-06 16:56 48.12933 11.85939 34793 ft 445 kts 141°
2026-05-06 16:56 48.08360 11.92197 34814 ft 446 kts 141°
2026-05-06 16:57 48.03046 11.99439 34776 ft 447 kts 141°
2026-05-06 16:57 47.99167 12.04713 34790 ft 448 kts 141°
2026-05-06 16:58 47.94552 12.10974 34798 ft 448 kts 141°
2026-05-06 16:58 47.89931 12.17227 34768 ft 449 kts 141°
2026-05-06 16:59 47.85326 12.23442 34758 ft 449 kts 141°
2026-05-06 16:59 47.80687 12.29688 34731 ft 449 kts 141°
2026-05-06 17:00 47.76044 12.35924 34735 ft 449 kts 141°
2026-05-06 17:00 47.71404 12.42142 34709 ft 449 kts 141°
2026-05-06 17:01 47.66759 12.48352 34714 ft 448 kts 141°
2026-05-06 17:01 47.62129 12.54526 34715 ft 448 kts 141°
2026-05-06 17:02 47.57807 12.60342 34715 ft 447 kts 141°
2026-05-06 17:02 47.55514 12.63442 34895 ft 446 kts 142°
2026-05-06 17:02 47.53222 12.66541 34841 ft 447 kts 145°
2026-05-06 17:03 47.48616 12.72747 34738 ft 447 kts 145°
2026-05-06 17:03 47.44177 12.78709 34713 ft 446 kts 145°
2026-05-06 17:04 47.39600 12.84843 34737 ft 443 kts 146°
2026-05-06 17:04 47.35365 12.90501 34736 ft 438 kts 146°
2026-05-06 17:05 47.30872 12.96492 34763 ft 437 kts 145°
2026-05-06 17:05 47.26307 13.02549 34739 ft 444 kts 145°
2026-05-06 17:06 47.21721 13.08631 34795 ft 444 kts 145°
2026-05-06 17:06 47.17113 13.14729 34807 ft 446 kts 145°
2026-05-06 17:07 47.12491 13.20829 34786 ft 447 kts 145°
2026-05-06 17:07 47.07861 13.26926 34768 ft 447 kts 145°
2026-05-06 17:08 47.03238 13.33002 34819 ft 446 kts 145°
2026-05-06 17:08 46.98639 13.39028 34858 ft 446 kts 145°
2026-05-06 17:09 46.94011 13.45076 34831 ft 446 kts 145°